This demonstration page uses our WeatherBlox Daily Observations layout. Learn more.

Left ArrowRight Arrow

Hourly Observations for July 27, 2016

Temp ( °F °C ) Dew Point ( °F °C ) Humidity (%) Winds ( mph kmh ) Pressure ( in mb ) Visibility ( mi km ) Precip ( " mm )
12:15 am 00:15 Clear 71 21.6 66 18.7 84 84 SE 9 15 29.94 1014 10 16 N/A
12:35 am 00:35 Clear 71 21.4 66 18.8 85 85 SSE 7 11 29.94 1014 10 16 N/A
12:55 am 00:55 Clear 71 21.5 66 18.7 84 84 SSE 7 11 29.94 1014 10 16 N/A
1:15 am 01:15 Partly Cloudy with Nearby Thunderstorms 71 21.5 66 18.7 84 84 N N/A 29.97 1015 10 16 N/A
1:35 am 01:35 Mostly Cloudy with Heavy Rain 67 19.2 59 15.2 78 78 N 23 37 30.09 1019 7 11 0.01 0.25
1:55 am 01:55 Cloudy 63 17.2 61 15.9 92 92 NNE 22 35 30.12 1020 3 4 0.18 4.57
2:15 am 02:15 Cloudy 63 17.2 61 16.1 93 93 NE 14 22 30.06 1018 7 11 0.05 1.27
2:35 am 02:35 Cloudy with Thunderstorms 63 17.1 61 16 93 93 ENE 14 22 30.09 1019 10 16 0.08 2.03
2:55 am 02:55 Partly Cloudy 63 17.2 60 15.8 92 92 E 13 20 30.03 1017 10 16 0.08 2.03
3:15 am 03:15 Clear with Thunderstorms 63 17.2 60 15.6 90 90 E 10 17 30.03 1017 10 16 N/A
3:35 am 03:35 Partly Cloudy with Light Rain 63 17.2 60 15.8 92 92 ESE 10 17 30.00 1016 10 16 N/A
3:55 am 03:55 Clear 63 17.2 60 15.7 91 91 SE 8 13 30.00 1016 10 16 N/A
4:15 am 04:15 Clear 63 17.2 60 15.5 90 90 SE 6 9 29.97 1015 10 16 N/A
4:35 am 04:35 Clear 63 17.1 60 15.6 91 91 SSE 7 11 29.97 1015 10 16 N/A
4:55 am 04:55 Clear 63 17.2 60 15.4 89 89 SSW 3 6 29.94 1014 10 16 N/A
5:15 am 05:15 Clear 63 17 60 15.5 91 91 N N/A 29.94 1014 10 16 N/A
5:35 am 05:35 Clear 63 17 60 15.6 92 92 N N/A 29.94 1014 10 16 N/A
5:55 am 05:55 Clear 62 16.7 60 15.4 92 92 SW 3 6 29.94 1014 10 16 N/A
6:15 am 06:15 Clear 62 16.7 60 15.3 92 92 WSW 3 6 29.94 1014 10 16 N/A
6:35 am 06:35 Sunny 62 16.6 59 15.2 92 92 WSW 7 11 29.94 1014 10 16 N/A
6:55 am 06:55 Sunny 62 16.6 59 15.2 92 92 WNW 6 9 29.97 1015 10 16 N/A
7:15 am 07:15 Sunny 62 16.5 60 15.3 93 93 W 6 9 29.97 1015 10 16 N/A
7:35 am 07:35 Sunny 62 16.9 60 15.6 92 92 WNW 8 13 30.00 1016 10 16 N/A
7:55 am 07:55 Sunny 63 17.2 61 15.9 92 92 WNW 5 7 30.00 1016 10 16 N/A
8:15 am 08:15 Sunny 64 17.8 61 16.1 90 90 WNW 5 7 30.00 1016 10 16 N/A
8:35 am 08:35 Sunny 65 18.5 62 16.5 88 88 W 5 7 30.00 1016 10 16 N/A
8:55 am 08:55 Sunny 67 19.6 62 16.8 84 84 N N/A 30.00 1016 10 16 N/A
9:15 am 09:15 Sunny 69 20.6 62 16.9 79 79 W 3 6 29.97 1015 10 16 N/A
9:35 am 09:35 Sunny 71 21.5 62 16.6 74 74 W 5 7 29.97 1015 10 16 N/A
9:55 am 09:55 Sunny 72 22 62 16.5 71 71 WNW 5 7 29.97 1015 10 16 N/A
10:15 am 10:15 Sunny 73 22.6 64 17.6 73 73 NW 6 9 29.97 1015 10 16 N/A
10:35 am 10:35 Sunny 74 23.3 64 17.8 71 71 NW 6 9 29.97 1015 10 16 N/A
10:55 am 10:55 Sunny 75 23.9 64 17.6 68 68 NW 7 11 29.94 1014 10 16 N/A
11:15 am 11:15 Sunny 76 24.7 63 17.4 64 64 NNE 8 13 29.97 1015 10 16 N/A
11:35 am 11:35 Sunny 77 25.1 64 17.9 64 64 NNE 7 11 29.97 1015 10 16 N/A
11:55 am 11:55 Sunny 78 25.5 63 17.1 60 60 NE 9 15 29.97 1015 10 16 N/A
12:15 pm 12:15 Sunny 79 26.2 63 17.1 57 57 NNE 8 13 29.97 1015 10 16 N/A
12:35 pm 12:35 Sunny 80 26.7 64 17.7 58 58 NNE 8 13 29.97 1015 10 16 N/A
12:55 pm 12:55 Sunny 79 26.3 67 19.4 66 66 ENE 8 13 29.97 1015 10 16 N/A
1:15 pm 13:15 Sunny 79 26.3 66 18.9 64 64 ENE 5 7 29.97 1015 10 16 N/A
1:35 pm 13:35 Sunny 79 26.3 65 18.5 62 62 N N/A 29.97 1015 10 16 N/A
1:55 pm 13:55 Partly Cloudy 80 26.6 66 19 63 63 E 6 9 29.97 1015 10 16 N/A
2:15 pm 14:15 Partly Cloudy 80 26.5 66 18.8 63 63 NE 6 9 29.97 1015 10 16 N/A
2:35 pm 14:35 Partly Cloudy 80 26.5 66 18.7 62 62 ENE 8 13 29.94 1014 10 16 N/A
2:55 pm 14:55 Partly Cloudy 80 26.7 66 18.9 62 62 E 8 13 29.94 1014 10 16 N/A
3:15 pm 15:15 Sunny 81 27 66 18.7 60 60 E 5 7 29.94 1014 10 16 N/A
3:35 pm 15:35 Sunny 81 27.1 67 19.2 62 62 E 9 15 29.88 1012 10 16 N/A
3:55 pm 15:55 Sunny 81 27.4 66 18.7 59 59 SE 10 17 29.88 1012 10 16 N/A
4:15 pm 16:15 Sunny 82 27.9 66 18.8 58 58 SE 9 15 29.88 1012 10 16 N/A
4:35 pm 16:35 Sunny 82 28 65 18.6 57 57 SE 12 19 29.85 1011 10 16 N/A
4:55 pm 16:55 Sunny 82 28 65 18.4 56 56 SE 9 15 29.85 1011 10 16 N/A
5:15 pm 17:15 Sunny 82 27.9 65 18.4 56 56 ESE 3 6 29.88 1012 10 16 N/A
5:35 pm 17:35 Sunny 82 27.7 65 18.5 57 57 E 3 6 29.88 1012 10 16 N/A
5:55 pm 17:55 Sunny 82 27.5 64 18 56 56 E 5 7 29.88 1012 10 16 N/A
6:15 pm 18:15 Sunny 82 27.8 65 18.1 56 56 ENE 6 9 29.88 1012 10 16 N/A
6:35 pm 18:35 Sunny 82 27.6 66 18.7 58 58 NE 5 7 29.88 1012 10 16 N/A
6:55 pm 18:55 Sunny 82 27.5 66 18.8 59 59 N N/A 29.88 1012 10 16 N/A
7:15 pm 19:15 Sunny 81 27.1 67 19.3 62 62 N 3 6 29.88 1012 10 16 N/A
7:35 pm 19:35 Sunny 80 26.8 68 19.8 66 66 NNE 6 9 29.91 1013 10 16 N/A
7:55 pm 19:55 Sunny 79 26 69 20.5 72 72 NNE 3 6 29.91 1013 10 16 N/A
8:15 pm 20:15 Sunny 77 25.2 70 20.9 77 77 N N/A 29.91 1013 10 16 N/A
8:35 pm 20:35 Sunny 76 24.6 70 21.2 81 81 N N/A 29.91 1013 10 16 N/A
8:55 pm 20:55 Mostly Cloudy 75 24 71 21.5 86 86 NNE 3 6 29.94 1014 10 16 N/A
9:15 pm 21:15 Partly Cloudy 74 23.4 70 21 86 86 NNE 3 6 29.97 1015 10 16 N/A
9:35 pm 21:35 Clear 74 23.5 70 21.1 86 86 N N/A 29.97 1015 10 16 N/A
9:55 pm 21:55 Clear 72 22.4 69 20.5 89 89 N N/A 29.97 1015 10 16 N/A
10:15 pm 22:15 Clear 72 22 69 20.4 91 91 N N/A 30.00 1016 10 16 N/A
10:35 pm 22:35 Clear 71 21.4 68 19.8 91 91 N 5 7 29.97 1015 10 16 N/A
10:55 pm 22:55 Clear 71 21.4 68 20 92 92 NNE 3 6 30.00 1016 10 16 N/A
11:15 pm 23:15 Clear 70 21.3 68 19.9 92 92 N 5 7 30.00 1016 10 16 N/A
11:35 pm 23:35 Partly Cloudy 70 21 67 19.7 92 92 NNE 5 7 30.00 1016 10 16 N/A
11:55 pm 23:55 Partly Cloudy 71 21.5 67 19.6 89 89 N 7 11 30.00 1016 10 16 N/A

Powered by AerisWeather